Location: Bronnegerveen
(52.9548°N, 6.8388°E)
Time: 02:33:39
(UTC+00:00)

Cosmos 1378 Rocket - Pass Details

Date: 15 June 2025
Orbit: 594 x 621 km, 82.5° (Epoch: 07 July)

Event Time Altitude Azimuth Distance (km) Brightness Sun altitude
Exits shadow 00:40:25 18° 182° (S) 1,540 5.0 -12.3°
Maximum altitude 00:43:41 76° 98° (E) 644 3.6 -12.2°
Drops below altitude 10° 00:48:05 10° 14° (NNE) 1,988 7.7 -12.0°
Sets 00:50:19 0° 13° (NNE) 2,894 9.1 -11.9°
